| time (UTC) | temp F | wind direction | speed MPH | gust MPH | rain 1hr in | rain 24hr in | rain mn in | humidity % | barometer mb |
| 20260505001539 | 45 | 223 | 3.0 | 6.0 | 0.00 | 0.51 | 0.48 | 82 | 1005.9 |
| 20260505000035 | 46 | 263 | 5.0 | 11.0 | 0.00 | 0.51 | 0.48 | 81 | 1005.8 |
| 20260504234533 | 46 | 227 | 6.0 | 14.0 | 0.00 | 0.55 | 0.48 | 80 | 1005.6 |
| 20260504233054 | 47 | 157 | 5.0 | 15.0 | 0.00 | 0.55 | 0.48 | 79 | 1005.4 |
| 20260504231541 | 47 | 242 | 6.0 | 14.0 | 0.00 | 0.55 | 0.48 | 79 | 1005.2 |
| 20260504230039 | 48 | 245 | 7.0 | 14.0 | 0.00 | 0.55 | 0.48 | 78 | 1005.2 |
| 20260504224538 | 48 | 204 | 6.0 | 14.0 | 0.00 | 0.59 | 0.48 | 77 | 1005.0 |
| 20260504223036 | 48 | 292 | 6.0 | 14.0 | 0.00 | 0.59 | 0.48 | 76 | 1004.9 |
| 20260504221546 | 49 | 249 | 8.0 | 15.0 | 0.00 | 0.59 | 0.48 | 77 | 1004.7 |
| 20260504220056 | 49 | 295 | 6.0 | 14.0 | 0.00 | 0.59 | 0.48 | 79 | 1004.6 |
| 20260504214542 | 48 | 265 | 6.0 | 18.0 | 0.00 | 0.72 | 0.48 | 78 | 1004.5 |
| 20260504213038 | 49 | 266 | 7.0 | 18.0 | 0.00 | 0.72 | 0.48 | 76 | 1004.5 |
| 20260504211535 | 49 | 293 | 9.0 | 21.0 | 0.00 | 0.72 | 0.48 | 73 | 1004.6 |
| 20260504210044 | 50 | 253 | 9.0 | 18.0 | 0.00 | 0.72 | 0.48 | 70 | 1004.5 |
| 20260504204557 | 50 | 261 | 9.0 | 23.0 | 0.00 | 0.80 | 0.48 | 68 | 1004.3 |
| 20260504203038 | 51 | 229 | 10.0 | 18.0 | 0.00 | 0.80 | 0.48 | 63 | 1004.1 |
| 20260504201538 | 52 | 229 | 8.0 | 28.0 | 0.00 | 0.80 | 0.48 | 56 | 1004.1 |
| 20260504200043 | 53 | 282 | 9.0 | 19.0 | 0.00 | 0.80 | 0.48 | 57 | 1004.0 |
| 20260504194544 | 54 | 270 | 10.0 | 20.0 | 0.00 | 0.92 | 0.48 | 55 | 1003.5 |
| 20260504193042 | 53 | 219 | 9.0 | 22.0 | 0.00 | 0.92 | 0.48 | 58 | 1003.5 |
| 20260504191541 | 54 | 237 | 8.0 | 22.0 | 0.00 | 0.92 | 0.48 | 55 | 1003.4 |
| 20260504190039 | 54 | 257 | 13.0 | 25.0 | 0.00 | 0.92 | 0.48 | 52 | 1003.3 |
| 20260504184538 | 53 | 288 | 11.0 | 27.0 | 0.00 | 1.05 | 0.48 | 56 | 1003.4 |
| 20260504183040 | 51 | 279 | 11.0 | 26.0 | 0.00 | 1.05 | 0.48 | 62 | 1003.6 |
| 20260504181545 | 50 | 248 | 12.0 | 24.0 | 0.00 | 1.05 | 0.48 | 61 | 1003.6 |
| 20260504180039 | 51 | 266 | 15.0 | 28.0 | 0.00 | 1.05 | 0.48 | 59 | 1003.7 |
| 20260504174538 | 52 | 245 | 12.0 | 24.0 | 0.00 | 1.13 | 0.48 | 58 | 1003.6 |
| 20260504173039 | 51 | 267 | 15.0 | 27.0 | 0.00 | 1.13 | 0.48 | 60 | 1003.5 |
| 20260504171539 | 50 | 270 | 13.0 | 27.0 | 0.00 | 1.13 | 0.48 | 61 | 1003.6 |
| 20260504081549 | 37 | 248 | 10.0 | 18.0 | 0.03 | 1.03 | 0.31 | 93 | 994.2 |
| 20260504044540 | 33 | 271 | 7.0 | 17.0 | 0.07 | 0.82 | 0.10 | 94 | 988.0 |
| 20260504043046 | 34 | 267 | 9.0 | 17.0 | 0.06 | 0.81 | 0.08 | 94 | 987.6 |
| 20260504041544 | 35 | 295 | 9.0 | 22.0 | 0.04 | 0.78 | 0.06 | 93 | 987.1 |
| 20260504040047 | 35 | 292 | 10.0 | 20.0 | 0.03 | 0.77 | 0.04 | 93 | 986.6 |
| 20260504034540 | 35 | 288 | 9.0 | 21.0 | 0.03 | 0.75 | 0.03 | 93 | 986.2 |
| 20260504033040 | 36 | 271 | 9.0 | 24.0 | 0.03 | 0.74 | 0.02 | 92 | 985.7 |
| 20260504031551 | 36 | 302 | 13.0 | 23.0 | 0.02 | 0.74 | 0.01 | 93 | 985.4 |
| 20260504030043 | 36 | 266 | 12.0 | 22.0 | 0.00 | 0.72 | 0.00 | 92 | 984.9 |
| 20260504024545 | 37 | 311 | 12.0 | 20.0 | 0.01 | 0.72 | 0.72 | 92 | 984.6 |
| 20260504023040 | 38 | 310 | 10.0 | 23.0 | 0.00 | 0.71 | 0.71 | 92 | 983.8 |
| 20260504021543 | 39 | 338 | 13.0 | 27.0 | 0.00 | 0.71 | 0.71 | 92 | 983.6 |
| 20260504020124 | 39 | 333 | 13.0 | 22.0 | 0.00 | 0.71 | 0.71 | 93 | 983.9 |
| 20260504014559 | 39 | 305 | 7.0 | 24.0 | 0.00 | 0.70 | 0.70 | 93 | 984.4 |
| 20260504013055 | 39 | 302 | 9.0 | 22.0 | 0.00 | 0.70 | 0.70 | 93 | 984.2 |
| 20260504011539 | 39 | 347 | 13.0 | 22.0 | 0.00 | 0.70 | 0.70 | 93 | 984.0 |
| 20260504010048 | 39 | 2 | 12.0 | 23.0 | 0.00 | 0.70 | 0.70 | 93 | 983.9 |
| 20260504004615 | 39 | 304 | 12.0 | 26.0 | 0.01 | 0.70 | 0.70 | 93 | 983.7 |
| 20260504003049 | 39 | 316 | 10.0 | 20.0 | 0.01 | 0.70 | 0.70 | 93 | 983.6 |